Flag for Indonesia Weather past 2 weeks in Manado, North Sulawesi, Indonesia

Now
86 °F

Scattered clouds.


Feels Like: 93 °F
Forecast: 77 / 85 °F
Wind: 9 mph from Northeast

Location: Menado / Dr. Sam Ratulangi

Current Time: Feb 28, 2015 at 3:42:29 PM

Latest Report: Feb 28, 2015 at 3:00 PM


Visibility: N/A

Pressure: 29.77 "Hg

Humidity: 66%

Dew point: 73 °F

Location of ManadoLocation

Historic Weather in Manado — Graph

°F

Manado temperature yesterday

Maximum temperature yesterday: 86 °F (at 12:30 PM)
Minimum temperature yesterday: 75 °F (at 2:00 AM)
Average temperature yesterday: 80 °F

Past Weeks' High & Low Weather Summary

 TemperatureHumidityPressure
High90 °F (Feb 15, 1:30 PM)100% (Feb 14, 2:00 AM)29.95 "Hg (Feb 14, 2:00 AM)
Low72 °F (Feb 26, 6:00 AM)40% (Feb 24, 10:00 AM)29.77 "Hg (Feb 13, 3:00 PM)
Average80 °F83%29.86 "Hg
* Reported Feb 13 3:00 PM — Feb 28 2:30 PM, Manado, Weather by CustomWeather, © 2015

Note: Actual official high and low records may vary slightly from our data, if they occured in-between our weather recording intervals... More about our weather records

Advertising

Manado weather history for previous 24 hours

 ConditionsComfort  
Time TempWeatherWind HumidityBarometerVisibility
2:30 PM
Sat, Feb 28
86 °FScattered clouds.10 mph66%29.77 "HgN/A
2:00 PM86 °FScattered clouds.9 mph66%29.80 "HgN/A
1:30 PM84 °FScattered clouds.8 mph70%29.80 "HgN/A
1:00 PM84 °FScattered clouds.10 mph70%29.83 "Hg6 mi
12:30 PM82 °FLight rain. Scattered clouds.8 mph79%29.83 "Hg4 mi
12:00 PM86 °FScattered clouds.7 mph66%29.83 "Hg6 mi
11:30 AM86 °FScattered clouds.9 mph66%29.83 "HgN/A
11:00 AM84 °FScattered clouds.7 mph70%29.86 "Hg6 mi
10:30 AM82 °FScattered clouds.8 mph74%29.89 "HgN/A
10:00 AM84 °FScattered clouds.8 mph66%29.89 "HgN/A
9:30 AM84 °FScattered clouds.6 mph66%29.89 "HgN/A
9:00 AM82 °FPassing clouds.3 mph79%29.89 "HgN/A
8:00 AM81 °FPassing clouds.2 mph84%29.89 "Hg6 mi
7:30 AM81 °FPassing clouds.No wind84%29.86 "Hg6 mi
7:00 AM77 °FPassing clouds.2 mph89%29.86 "Hg5 mi
6:30 AM75 °FPassing clouds.2 mph94%29.86 "Hg5 mi
6:00 AM75 °FPassing clouds.2 mph94%29.86 "Hg5 mi
5:30 AM75 °FPassing clouds.1 mph94%29.83 "Hg6 mi
5:00 AM75 °FPassing clouds.1 mph94%29.83 "Hg6 mi
4:30 AM75 °FPassing clouds.1 mph94%29.83 "Hg6 mi
2:00 AM77 °FWarm.2 mph94%29.83 "Hg6 mi
12:30 AM77 °FPassing clouds.1 mph94%29.86 "Hg6 mi
12:00 AM77 °FPassing clouds.No wind94%29.86 "Hg6 mi
11:30 PM
Fri, Feb 27
77 °FPassing clouds.2 mph94%29.86 "Hg6 mi
11:00 PM77 °FPassing clouds.3 mph94%29.86 "Hg6 mi
10:30 PM79 °FPassing clouds.1 mph89%29.89 "Hg6 mi
10:00 PM79 °FPassing clouds.No wind89%29.89 "Hg6 mi
9:30 PM79 °FPassing clouds.1 mph89%29.86 "Hg6 mi
9:00 PM79 °FPassing clouds.1 mph89%29.86 "Hg6 mi
8:30 PM79 °FPassing clouds.2 mph89%29.86 "Hg6 mi
8:00 PM79 °FPassing clouds.2 mph89%29.83 "Hg6 mi
7:30 PM79 °FPassing clouds.2 mph89%29.83 "Hg6 mi
7:00 PM79 °FPassing clouds.2 mph89%29.83 "Hg6 mi
6:30 PM79 °FPassing clouds.1 mph89%29.83 "Hg6 mi
6:00 PM81 °FPassing clouds.3 mph84%29.80 "HgN/A
5:30 PM81 °FScattered clouds.3 mph84%29.80 "HgN/A
5:00 PM82 °FScattered clouds.5 mph74%29.77 "HgN/A
4:00 PM84 °FScattered clouds.6 mph70%29.77 "HgN/A
3:30 PM84 °FScattered clouds.9 mph74%29.77 "HgN/A
3:00 PM84 °FScattered clouds.9 mph70%29.77 "HgN/A
Weather by CustomWeather, © 2015

See weather overviewHow to use our weather pages